This demonstration page uses our WeatherBlox Daily Observations layout. Learn more.

Left ArrowRight Arrow

Hourly Observations for March 31, 2018

Temp ( °F °C ) Dew Point ( °F °C ) Humidity (%) Winds ( mph kmh ) Pressure ( in mb ) Visibility ( mi km ) Precip ( " mm )
12:53 am 00:53 Clear 59 15 47 8.3 64 64 NNW 3 6 30.02 1017 10 16 0.00 0.00
1:53 am 01:53 Clear 56 13.3 47 8.3 72 72 undefined N/A 30.01 1016 10 16 0.00 0.00
2:53 am 02:53 Clear 54 12.2 47 8.3 77 77 Calm 30.00 1016 10 16 0.00 0.00
3:53 am 03:53 Clear 56 13.3 46 7.8 70 70 N 3 6 29.99 1016 10 16 0.00 0.00
4:53 am 04:53 Clear 53 11.7 45 7.2 74 74 N 3 6 29.99 1016 10 16 0.00 0.00
5:53 am 05:53 Clear 50 10 46 7.8 86 86 Calm 30.00 1016 10 16 0.00 0.00
6:53 am 06:53 Clear 49 9.4 44 6.7 83 83 NNW 3 6 30.01 1016 10 16 0.00 0.00
7:53 am 07:53 Sunny 50 10 44 6.7 80 80 N 3 6 30.01 1016 10 16 0.00 0.00
8:53 am 08:53 Sunny 58 14.4 46 7.8 65 65 N 3 6 30.02 1017 10 16 0.00 0.00
9:53 am 09:53 Sunny 63 17.2 44 6.7 50 50 Calm 30.02 1017 10 16 0.00 0.00
10:53 am 10:53 Sunny 66 18.9 46 7.8 49 49 NNE 5 7 30.03 1017 10 16 0.00 0.00
11:53 am 11:53 Sunny 69 20.6 46 7.8 44 44 Calm 30.03 1017 10 16 0.00 0.00
12:53 pm 12:53 Sunny 73 22.8 47 8.3 40 40 VRB 3 6 30.00 1016 10 16 0.00 0.00
1:53 pm 13:53 Sunny 75 23.9 46 7.8 36 36 S 3 6 29.98 1015 10 16 0.00 0.00
2:53 pm 14:53 Sunny 77 25 40 4.4 26 26 Calm 29.96 1015 10 16 0.00 0.00
3:53 pm 15:53 Sunny 78 25.6 35 1.7 21 21 ESE 3 6 29.93 1014 10 16 0.00 0.00
4:53 pm 16:53 Sunny 79 26.1 36 2.2 21 21 SE 5 7 29.92 1013 10 16 0.00 0.00
5:53 pm 17:53 Sunny 78 25.6 40 4.4 26 26 S 9 15 29.91 1013 10 16 0.00 0.00
6:53 pm 18:53 Sunny 75 23.9 47 8.3 37 37 SSW 8 13 29.91 1013 10 16 0.00 0.00
7:53 pm 19:53 Clear 66 18.9 48 8.9 52 52 S 5 7 29.91 1013 10 16 0.00 0.00
8:53 pm 20:53 Clear 66 18.9 47 8.3 50 50 NE 3 6 29.93 1013 10 16 0.00 0.00
9:53 pm 21:53 Clear 61 16.1 47 8.3 60 60 ENE 3 6 29.94 1014 10 16 0.00 0.00
10:53 pm 22:53 Clear 60 15.6 47 8.3 62 62 Calm 29.94 1014 10 16 0.00 0.00
11:53 pm 23:53 Clear 57 13.9 46 7.8 67 67 N 6 9 29.95 1014 10 16 0.00 0.00

Powered by AerisWeather